This demonstration page uses our WeatherBlox Daily Observations layout. Learn more.

Left ArrowRight Arrow

Hourly Observations for August 20, 2021

Temp ( °F °C ) Dew Point ( °F °C ) Humidity (%) Winds ( mph kmh ) Pressure ( in mb ) Visibility ( mi km ) Precip ( " mm )
12:15 am 00:15 Clear 65 18.5 64 18 97 97 Calm 30.02 1017 7 11 0.00 0.00
12:35 am 00:35 Clear 65 18.3 64 18 98 98 Calm 30.03 1017 7 11 0.00 0.00
12:55 am 00:55 Clear 65 18.1 64 17.9 99 99 Calm 30.03 1017 7 11 0.00 0.00
1:15 am 01:15 Clear with Mist and Fog 65 18.2 64 17.9 98 98 Calm 30.02 1017 5 8 0.00 0.00
1:35 am 01:35 Clear with Mist and Fog 65 18.1 64 18 99 99 Calm 30.03 1017 4 6 0.00 0.00
1:55 am 01:55 Clear with Mist and Fog 64 18 64 17.7 98 98 Calm 30.03 1017 5 8 0.00 0.00
2:15 am 02:15 Clear 64 17.7 64 17.5 99 99 Calm 30.03 1017 7 11 0.00 0.00
2:35 am 02:35 Partly Cloudy with Mist and Fog 64 17.6 63 17.3 98 98 Calm 30.01 1016 2 2 0.00 0.00
2:55 am 02:55 Partly Cloudy with Mist and Fog 64 17.5 63 17.1 98 98 Calm 30.01 1016 5 8 0.00 0.00
3:15 am 03:15 Clear with Mist and Fog 64 17.5 63 17.1 98 98 Calm 30.01 1016 5 8 0.00 0.00
3:35 am 03:35 Partly Cloudy 63 17.3 63 17 98 98 Calm 30.02 1016 7 11 0.00 0.00
3:55 am 03:55 Cloudy with Fog 64 17.5 63 17.2 98 98 Calm 30.01 1016 1 1 0.00 0.00
4:15 am 04:15 Partly Cloudy with Mist and Fog 64 17.7 64 17.5 99 99 Calm 30.00 1016 3 5 0.00 0.00
4:35 am 04:35 Clear with Mist and Fog 63 17.3 63 17.1 99 99 Calm 30.01 1016 4 6 0.00 0.00
4:55 am 04:55 Clear 63 17.1 62 16.7 98 98 Calm 30.01 1016 7 11 0.00 0.00
5:15 am 05:15 Cloudy with Mist and Fog 63 17.2 62 16.9 98 98 Calm 30.00 1016 1 1 0.00 0.00
5:35 am 05:35 Cloudy with Mist and Fog 63 17 62 16.9 99 99 Calm 30.01 1016 2 2 0.00 0.00
5:55 am 05:55 Cloudy with Fog 62 16.8 62 16.7 99 99 Calm 30.01 1016 0 0 0.00 0.00
6:15 am 06:15 Cloudy with Fog 62 16.8 62 16.7 99 99 Calm 30.01 1016 0 0 0.00 0.00
6:35 am 06:35 Cloudy with Mist and Fog 63 17 62 16.9 99 99 Calm 30.01 1016 1 1 0.00 0.00
6:55 am 06:55 Cloudy with Mist and Fog 62 16.7 62 16.6 99 99 Calm 30.01 1016 1 1 0.00 0.00
7:15 am 07:15 Cloudy with Fog 62 16.4 62 16.4 100 100 Calm 30.01 1016 N/A 0.00 0.00
7:35 am 07:35 Cloudy with Fog 62 16.8 62 16.8 100 100 Calm 30.02 1016 N/A 0.00 0.00
7:55 am 07:55 Cloudy with Fog 64 17.6 64 17.6 100 100 Calm 30.01 1016 1 1 0.00 0.00
8:15 am 08:15 Mostly Cloudy with Mist and Fog 66 18.8 66 18.8 100 100 Calm 30.01 1016 3 4 0.00 0.00
8:35 am 08:35 Partly Cloudy with Mist and Fog 68 20 68 19.9 99 99 Calm 30.01 1016 3 5 0.00 0.00
8:55 am 08:55 Sunny with Mist and Fog 70 21 69 20.4 96 96 Calm 30.00 1016 4 6 0.00 0.00
9:15 am 09:15 Sunny with Mist and Fog 72 22.2 70 21.1 94 94 Calm 30.00 1016 5 8 0.00 0.00
9:35 am 09:35 Sunny 74 23.1 70 21.2 89 89 Calm 30.00 1016 7 11 0.00 0.00
9:55 am 09:55 Sunny 75 23.9 70 20.9 83 83 Calm 29.99 1016 10 16 0.00 0.00
10:15 am 10:15 Sunny 77 24.9 69 20.7 78 78 Calm 29.99 1016 10 16 0.00 0.00
10:35 am 10:35 Sunny 78 25.8 69 20.5 73 73 Calm 29.99 1015 10 16 0.00 0.00
10:55 am 10:55 Sunny 80 26.5 70 21 72 72 Calm 29.99 1015 10 16 0.00 0.00
11:15 am 11:15 Sunny 81 27 70 21.3 71 71 Calm 29.99 1016 10 16 0.00 0.00
11:35 am 11:35 Sunny 82 27.5 70 20.9 67 67 Calm 29.98 1015 10 16 0.00 0.00
11:55 am 11:55 Partly Cloudy 81 27 69 20.8 69 69 Calm 29.98 1015 10 16 0.00 0.00
12:15 pm 12:15 Partly Cloudy 82 27.9 70 21.3 67 67 Calm 29.98 1015 10 16 0.00 0.00
12:35 pm 12:35 Sunny 82 27.6 70 21.1 68 68 Calm 29.98 1015 10 16 0.00 0.00
12:55 pm 12:55 Partly Cloudy 81 27.1 70 21.1 70 70 Calm 29.97 1015 10 16 0.00 0.00
1:15 pm 13:15 Partly Cloudy 84 28.7 70 21 63 63 Calm 29.97 1015 10 16 0.00 0.00
1:35 pm 13:35 Partly Cloudy 85 29.5 70 21.1 61 61 SE 5 7 29.96 1014 10 16 0.00 0.00
1:55 pm 13:55 Mostly Cloudy 84 29 69 20.8 61 61 W 5 7 29.95 1014 10 16 0.00 0.00
2:15 pm 14:15 Mostly Cloudy 84 28.7 69 20.5 61 61 Calm 29.95 1014 10 16 0.00 0.00
2:35 pm 14:35 Mostly Cloudy 84 28.9 69 20.5 61 61 SSW 5 7 29.94 1014 10 16 0.00 0.00
2:55 pm 14:55 Mostly Cloudy 84 29 69 20.7 61 61 SSW 10 17 29.94 1014 10 16 0.00 0.00
3:15 pm 15:15 Cloudy 85 29.5 68 20.1 57 57 SW 9 15 29.93 1013 10 16 0.00 0.00
3:35 pm 15:35 Partly Cloudy 85 29.4 69 20.4 58 58 SSW 7 11 29.93 1013 10 16 0.00 0.00
3:55 pm 15:55 Sunny 85 29.2 68 19.9 57 57 S 7 11 29.92 1013 10 16 0.00 0.00
4:15 pm 16:15 Sunny 84 29.1 69 20.6 60 60 SSW 8 13 29.91 1013 10 16 0.00 0.00
4:35 pm 16:35 Sunny 84 29 69 20.4 60 60 SSW 7 11 29.91 1013 10 16 0.00 0.00
4:55 pm 16:55 Sunny 84 29.1 68 20.1 58 58 S 7 11 29.90 1012 10 16 0.00 0.00
5:15 pm 17:15 Sunny 84 29 68 19.8 58 58 SSW 5 7 29.90 1012 10 16 0.00 0.00
5:35 pm 17:35 Sunny 84 29 67 19.4 56 56 S 8 13 29.90 1012 10 16 0.00 0.00
5:55 pm 17:55 Sunny 83 28.6 67 19.5 58 58 S 8 13 29.89 1012 10 16 0.00 0.00
6:15 pm 18:15 Sunny 83 28.1 68 19.9 61 61 S 7 11 29.90 1013 10 16 0.00 0.00
6:35 pm 18:35 Sunny 82 27.5 68 19.9 63 63 S 9 15 29.89 1012 10 16 0.00 0.00
6:55 pm 18:55 Sunny 81 27.1 68 20 65 65 SSW 8 13 29.89 1012 10 16 0.00 0.00
7:15 pm 19:15 Sunny 80 26.8 67 19.5 64 64 S 5 7 29.88 1012 10 16 0.00 0.00
7:35 pm 19:35 Sunny 80 26.5 67 19.4 65 65 SSW 3 6 29.89 1012 10 16 0.00 0.00
7:55 pm 19:55 Sunny 78 25.8 67 19.7 69 69 Calm 29.89 1012 10 16 0.00 0.00
8:15 pm 20:15 Sunny 76 24.5 69 20.3 78 78 SE 3 6 29.89 1012 10 16 0.00 0.00
8:35 pm 20:35 Clear 73 22.6 69 20.5 88 88 Calm 29.90 1012 10 16 0.00 0.00
8:55 pm 20:55 Clear 71 21.7 68 20.1 91 91 Calm 29.91 1013 10 16 0.00 0.00
9:15 pm 21:15 Clear 70 21 68 19.9 93 93 Calm 29.91 1013 10 16 0.00 0.00
9:35 pm 21:35 Clear 69 20.6 67 19.5 93 93 Calm 29.91 1013 10 16 0.00 0.00
9:55 pm 21:55 Clear 69 20.6 67 19.4 93 93 Calm 29.91 1013 10 16 0.00 0.00
10:15 pm 22:15 Clear 68 20 66 19 94 94 Calm 29.92 1013 10 16 0.00 0.00
10:35 pm 22:35 Clear 68 20.2 66 19 93 93 Calm 29.92 1013 10 16 0.00 0.00
10:55 pm 22:55 Clear 67 19.5 65 18.6 95 95 Calm 29.92 1013 10 16 0.00 0.00
11:15 pm 23:15 Clear 66 19.1 65 18.4 96 96 Calm 29.92 1013 10 16 0.00 0.00
11:35 pm 23:35 Clear 66 19.1 65 18.4 96 96 Calm 29.91 1013 10 16 0.00 0.00
11:55 pm 23:55 Clear 66 18.7 64 18 96 96 Calm 29.92 1013 10 16 0.00 0.00

Powered by AerisWeather